This is the latest recevied weather packets stored in our database for station/object KG0HG. If no packets are shown the sender has not sent any weather packets the latest 10 day(s).
| Time | Temp. | Humidity | Pressure | Rain* | Wind** | Luminosity | Snow |
|---|---|---|---|---|---|---|---|
| 1777935233 | 27.22° C | 44% | 1001.6 hPa | 0 mm | - | 76 W/m² | - |
| 1777934931 | 27.22° C | 44% | 1001.6 hPa | 0 mm | - | 71 W/m² | - |
| 1777934627 | 26.67° C | 45% | 1001.7 hPa | 0 mm | - | 83 W/m² | - |
| 1777934324 | 26.67° C | 45% | 1001.5 hPa | 0 mm | - | 88 W/m² | - |
| 1777934019 | 26.67° C | 45% | 1001.7 hPa | 0 mm | - | 74 W/m² | - |
| 1777933716 | 26.67° C | 46% | 1001.7 hPa | 0 mm | - | 82 W/m² | - |
| 1777933413 | 26.67° C | 45% | 1001.8 hPa | 0 mm | - | 86 W/m² | - |
| 1777933112 | 26.67° C | 45% | 1001.9 hPa | 0 mm | - | 90 W/m² | - |
| 1777932808 | 26.67° C | 46% | 1001.8 hPa | 0 mm | - | 96 W/m² | - |
| 1777932505 | 26.67° C | 45% | 1001.6 hPa | 0 mm | - | 96 W/m² | - |
| 1777932202 | 26.67° C | 44% | 1002 hPa | 0 mm | - | 93 W/m² | - |
| 1777931899 | 26.67° C | 44% | 1001.8 hPa | 0 mm | - | 105 W/m² | - |
| 1777931595 | 26.67° C | 45% | 1001.8 hPa | 0 mm | - | 100 W/m² | - |
| 1777931291 | 27.22° C | 43% | 1001.9 hPa | 0 mm | - | 109 W/m² | - |
| 1777930989 | 27.22° C | 42% | 1001.8 hPa | 0 mm | - | 115 W/m² | - |
| 1777930685 | 27.22° C | 41% | 1002 hPa | 0 mm | - | 172 W/m² | - |
| 1777930381 | 27.22° C | 40% | 1001.9 hPa | 0 mm | - | 115 W/m² | - |
| 1777930078 | 27.78° C | 42% | 1001.8 hPa | 0 mm | - | 109 W/m² | - |
| 1777929768 | 27.78° C | 42% | 1001.9 hPa | 0 mm | - | 103 W/m² | - |
| 1777929466 | 27.78° C | 44% | 1001.9 hPa | 0 mm | - | 107 W/m² | - |
| 1777929162 | 27.78° C | 42% | 1001.9 hPa | 0 mm | - | 88 W/m² | - |
| 1777928860 | 27.78° C | 43% | 1001.9 hPa | 0 mm | - | 81 W/m² | - |
| 1777928557 | 27.78° C | 42% | 1002 hPa | 0 mm | - | 65 W/m² | - |
| 1777928254 | 27.78° C | 41% | 1002 hPa | 0 mm | - | 67 W/m² | - |
| 1777927952 | 27.78° C | 43% | 1002 hPa | 0 mm | - | 107 W/m² | - |
* Rain latest hour (hover to see other rain measurements)
** Current wind speed in m/s (hover to see current wind gust speed)